Radiation Dose at Monitoring Post of Fukushima Daini Nuclear Power Station
Date,Time,MP-1(microSv/h),MP-2(microSv/h),MP-3(microSv/h),MP-4(microSv/h),MP-5(microSv/h),MP-6(microSv/h),MP-7(microSv/h),Wind Direction,Wind Velocity(m/s),Rain
2020/11/21,00:00,0.179,0.160,0.265,0.252,0.248,0.144,0.086,north,5.1,No
2020/11/21,00:10,0.177,0.161,0.267,0.250,0.247,0.144,0.086,north-northwest,4.3,No
2020/11/21,00:20,0.179,0.160,0.265,0.252,0.249,0.144,0.086,north-northwest,6.1,No
2020/11/21,00:30,0.178,0.160,0.266,0.251,0.247,0.143,0.086,northwest,4.6,No
2020/11/21,00:40,0.179,0.161,0.265,0.252,0.249,0.144,0.086,northwest,4.6,No
2020/11/21,00:50,0.178,0.161,0.266,0.251,0.247,0.144,0.087,northwest,5.8,No
2020/11/21,01:00,0.179,0.161,0.268,0.251,0.249,0.144,0.087,northwest,4.2,No
2020/11/21,01:10,0.178,0.160,0.267,0.251,0.248,0.144,0.086,north-northwest,4.3,No
2020/11/21,01:20,0.180,0.162,0.266,0.253,0.250,0.143,0.086,north-northwest,3.4,No
2020/11/21,01:30,0.179,0.161,0.265,0.253,0.247,0.143,0.088,north,5.0,No
2020/11/21,01:40,0.177,0.163,0.266,0.251,0.250,0.145,0.087,northwest,2.6,No
2020/11/21,01:50,0.179,0.161,0.265,0.254,0.248,0.143,0.087,north-northwest,3.3,No
2020/11/21,02:00,0.179,0.162,0.267,0.251,0.249,0.145,0.087,north-northeast,3.3,No
2020/11/21,02:10,0.179,0.161,0.266,0.252,0.248,0.142,0.086,north,3.7,No
2020/11/21,02:20,0.178,0.160,0.267,0.251,0.247,0.144,0.087,north-northwest,3.6,No
2020/11/21,02:30,0.179,0.161,0.267,0.253,0.249,0.144,0.087,north,2.8,No
2020/11/21,02:40,0.178,0.160,0.265,0.253,0.247,0.143,0.086,north,2.4,No
2020/11/21,02:50,0.179,0.160,0.267,0.252,0.248,0.144,0.086,north-northeast,3.9,No
2020/11/21,03:00,0.177,0.160,0.265,0.252,0.247,0.144,0.087,north-northwest,6.3,No
2020/11/21,03:10,0.178,0.160,0.266,0.251,0.249,0.144,0.087,north-northwest,2.4,No
2020/11/21,03:20,0.178,0.161,0.265,0.251,0.247,0.143,0.086,west-northwest,8.5,No
2020/11/21,03:30,0.179,0.160,0.264,0.253,0.247,0.144,0.086,west,3.9,No
2020/11/21,03:40,0.179,0.160,0.266,0.252,0.249,0.144,0.086,northwest,3.6,No
2020/11/21,03:50,0.178,0.161,0.265,0.252,0.247,0.144,0.087,north-northwest,1.1,No
2020/11/21,04:00,0.180,0.161,0.267,0.250,0.249,0.144,0.086,northwest,4.5,No
2020/11/21,04:10,0.178,0.161,0.266,0.251,0.247,0.144,0.086,west-northwest,2.3,No
2020/11/21,04:20,0.179,0.160,0.267,0.251,0.249,0.144,0.086,northwest,2.8,No
2020/11/21,04:30,0.178,0.162,0.266,0.253,0.247,0.143,0.087,north,5.1,No
2020/11/21,04:40,0.179,0.159,0.264,0.251,0.248,0.143,0.087,north-northeast,6.0,No
2020/11/21,04:50,0.179,0.160,0.266,0.252,0.247,0.143,0.087,north-northwest,4.6,No
2020/11/21,05:00,0.178,0.161,0.264,0.252,0.249,0.145,0.086,north-northwest,5.7,No
2020/11/21,05:10,0.180,0.161,0.266,0.252,0.247,0.143,0.086,northwest,3.4,No
2020/11/21,05:20,0.178,0.161,0.266,0.253,0.249,0.143,0.086,west-northwest,6.2,No
2020/11/21,05:30,0.180,0.162,0.266,0.252,0.248,0.144,0.086,northwest,7.6,No
2020/11/21,05:40,0.178,0.160,0.267,0.253,0.247,0.143,0.087,northwest,8.4,No
2020/11/21,05:50,0.179,0.162,0.265,0.252,0.250,0.143,0.086,northwest,8.2,No
2020/11/21,06:00,0.179,0.160,0.267,0.252,0.248,0.143,0.086,northwest,6.4,No
2020/11/21,06:10,0.180,0.161,0.267,0.252,0.248,0.143,0.086,north-northwest,5.3,No
2020/11/21,06:20,0.178,0.161,0.266,0.252,0.249,0.143,0.086,north,5.6,No
2020/11/21,06:30,0.178,0.161,0.267,0.251,0.248,0.143,0.086,north-northwest,3.1,No
2020/11/21,06:40,0.179,0.161,0.266,0.254,0.250,0.143,0.086,north,5.5,No
2020/11/21,06:50,0.179,0.159,0.265,0.252,0.248,0.143,0.086,north,4.4,No
2020/11/21,07:00,0.180,0.161,0.267,0.252,0.248,0.144,0.086,north,4.7,No
2020/11/21,07:10,0.179,0.160,0.266,0.251,0.250,0.143,0.087,north-northwest,5.0,No
2020/11/21,07:20,0.179,0.162,0.265,0.252,0.248,0.143,0.087,northwest,5.2,No
2020/11/21,07:30,0.180,0.161,0.267,0.252,0.250,0.144,0.086,northwest,5.0,No
2020/11/21,07:40,0.179,0.161,0.266,0.251,0.247,0.144,0.087,northwest,4.9,No
2020/11/21,07:50,0.178,0.161,0.265,0.252,0.249,0.145,0.086,northwest,5.1,No
2020/11/21,08:00,0.178,0.161,0.267,0.251,0.248,0.143,0.087,northwest,5.6,No
2020/11/21,08:10,0.178,0.160,0.265,0.251,0.247,0.144,0.085,northwest,5.7,No
2020/11/21,08:20,0.180,0.161,0.266,0.251,0.250,0.143,0.086,north-northwest,5.0,No
2020/11/21,08:30,0.178,0.161,0.266,0.251,0.247,0.144,0.086,northwest,3.1,No
2020/11/21,08:40,0.179,0.161,0.266,0.252,0.249,0.144,0.087,northwest,3.3,No
2020/11/21,08:50,0.179,0.160,0.266,0.249,0.246,0.143,0.086,northwest,3.3,No
2020/11/21,09:00,0.179,0.159,0.265,0.251,0.249,0.143,0.086,northwest,2.8,No
2020/11/21,09:10,0.178,0.160,0.266,0.250,0.248,0.143,0.086,north,3.1,No
2020/11/21,09:20,0.179,0.161,0.266,0.252,0.250,0.144,0.086,north,2.1,No
2020/11/21,09:30,0.179,0.161,0.267,0.251,0.247,0.143,0.087,north,3.3,No
2020/11/21,09:40,0.178,0.161,0.266,0.252,0.250,0.143,0.086,north-northwest,3.3,No
2020/11/21,09:50,0.179,0.161,0.264,0.250,0.247,0.143,0.086,west,6.4,No
2020/11/21,10:00,0.179,0.162,0.267,0.252,0.250,0.144,0.086,west-northwest,7.0,No
2020/11/21,10:10,0.177,0.159,0.264,0.251,0.247,0.144,0.086,west-northwest,6.4,No
2020/11/21,10:20,0.178,0.160,0.267,0.251,0.248,0.144,0.086,west-northwest,6.5,No
2020/11/21,10:30,0.178,0.160,0.264,0.251,0.248,0.143,0.086,west-northwest,8.1,No
2020/11/21,10:40,0.179,0.162,0.266,0.252,0.246,0.144,0.086,west-northwest,8.7,No
2020/11/21,10:50,0.177,0.160,0.266,0.251,0.249,0.144,0.086,west,12.0,No
2020/11/21,11:00,0.179,0.160,0.266,0.251,0.247,0.144,0.087,west-northwest,14.4,No
2020/11/21,11:10,0.177,0.159,0.265,0.252,0.248,0.145,0.086,west-northwest,12.0,No
2020/11/21,11:20,0.179,0.162,0.267,0.251,0.248,0.145,0.087,west,11.1,No
2020/11/21,11:30,0.179,0.159,0.266,0.253,0.246,0.145,0.086,west-northwest,11.5,No
2020/11/21,11:40,0.179,0.162,0.267,0.250,0.248,0.143,0.086,northwest,5.1,No
2020/11/21,11:50,0.180,0.159,0.266,0.253,0.246,0.144,0.087,west-northwest,7.8,No
2020/11/21,12:00,0.177,0.161,0.267,0.251,0.247,0.145,0.087,west-northwest,11.2,No
2020/11/21,12:10,0.179,0.161,0.266,0.252,0.251,0.144,0.087,west,10.3,No
2020/11/21,12:20,0.178,0.161,0.266,0.251,0.246,0.144,0.086,west-northwest,9.6,No
2020/11/21,12:30,0.178,0.160,0.266,0.252,0.248,0.145,0.086,west-northwest,9.6,No
2020/11/21,12:40,0.179,0.161,0.265,0.252,0.249,0.145,0.087,west-northwest,8.1,No
2020/11/21,12:50,0.178,0.161,0.269,0.250,0.249,0.144,0.086,west-northwest,10.6,No
2020/11/21,13:00,0.180,0.160,0.266,0.252,0.249,0.144,0.087,west-northwest,9.5,No
2020/11/21,13:10,0.179,0.160,0.268,0.250,0.248,0.145,0.086,west-northwest,7.8,No
2020/11/21,13:20,0.179,0.160,0.267,0.252,0.248,0.144,0.086,west-northwest,6.8,No
2020/11/21,13:30,0.178,0.160,0.267,0.252,0.249,0.144,0.086,west-northwest,8.1,No
2020/11/21,13:40,0.178,0.159,0.266,0.251,0.250,0.144,0.086,west-northwest,7.4,No
2020/11/21,13:50,0.180,0.161,0.267,0.252,0.246,0.144,0.086,west-northwest,8.5,No
2020/11/21,14:00,0.178,0.159,0.266,0.250,0.250,0.144,0.086,west-northwest,9.6,No
2020/11/21,14:10,0.179,0.160,0.266,0.253,0.247,0.143,0.086,west-northwest,7.6,No
2020/11/21,14:20,0.178,0.160,0.267,0.252,0.248,0.145,0.085,west-northwest,8.7,No
2020/11/21,14:30,0.179,0.161,0.267,0.252,0.246,0.143,0.086,west-northwest,6.7,No
2020/11/21,14:40,0.180,0.160,0.267,0.252,0.248,0.143,0.086,northwest,4.1,No
2020/11/21,14:50,0.178,0.160,0.267,0.252,0.247,0.143,0.085,northwest,6.6,No
2020/11/21,15:00,0.178,0.161,0.266,0.252,0.250,0.143,0.086,north-northwest,4.9,No
2020/11/21,15:10,0.178,0.160,0.268,0.253,0.247,0.144,0.086,north-northwest,5.1,No
2020/11/21,15:20,0.177,0.160,0.265,0.251,0.250,0.143,0.086,north,7.3,No
2020/11/21,15:30,0.179,0.161,0.267,0.252,0.247,0.144,0.086,north-northwest,6.7,No
2020/11/21,15:40,0.178,0.160,0.266,0.253,0.248,0.144,0.086,north-northwest,6.6,No
2020/11/21,15:50,0.179,0.160,0.266,0.252,0.249,0.144,0.086,northwest,7.4,No
2020/11/21,16:00,0.178,0.160,0.267,0.253,0.248,0.144,0.086,north-northwest,5.6,No
2020/11/21,16:10,0.179,0.160,0.266,0.252,0.250,0.144,0.085,north-northwest,6.1,No
2020/11/21,16:20,0.179,0.161,0.266,0.252,0.249,0.143,0.086,north-northwest,5.2,No
2020/11/21,16:30,0.179,0.160,0.267,0.252,0.250,0.143,0.087,north-northwest,6.3,No
2020/11/21,16:40,0.180,0.162,0.266,0.253,0.248,0.142,0.086,north-northwest,4.4,No
2020/11/21,16:50,0.178,0.161,0.266,0.252,0.248,0.144,0.086,northwest,4.1,No
2020/11/21,17:00,0.178,0.160,0.267,0.252,0.249,0.144,0.086,north-northwest,1.8,No
2020/11/21,17:10,0.179,0.162,0.267,0.252,0.248,0.144,0.086,northwest,2.4,No
2020/11/21,17:20,0.178,0.160,0.266,0.252,0.248,0.144,0.086,west-northwest,2.3,No
2020/11/21,17:30,0.178,0.160,0.266,0.252,0.249,0.144,0.086,north,1.8,No
2020/11/21,17:40,0.178,0.161,0.267,0.253,0.248,0.144,0.086,northwest,2.3,No
2020/11/21,17:50,0.178,0.160,0.266,0.251,0.248,0.143,0.086,north-northwest,2.9,No
2020/11/21,18:00,0.178,0.160,0.267,0.252,0.248,0.144,0.086,north-northwest,2.9,No
2020/11/21,18:10,0.179,0.161,0.266,0.253,0.248,0.143,0.086,north-northwest,2.4,No
2020/11/21,18:20,0.179,0.160,0.267,0.251,0.247,0.144,0.086,northwest,1.7,No
2020/11/21,18:30,0.177,0.160,0.265,0.252,0.247,0.145,0.086,north-northwest,2.0,No
2020/11/21,18:40,0.179,0.160,0.268,0.253,0.247,0.144,0.087,northwest,2.9,No
2020/11/21,18:50,0.178,0.161,0.267,0.253,0.248,0.143,0.086,north-northwest,1.9,No
2020/11/21,19:00,0.179,0.160,0.266,0.252,0.249,0.143,0.086,northwest,3.1,No
2020/11/21,19:10,0.179,0.160,0.268,0.251,0.249,0.144,0.086,west-northwest,2.6,No
2020/11/21,19:20,0.179,0.160,0.267,0.253,0.247,0.143,0.086,west-northwest,3.1,No
2020/11/21,19:30,0.177,0.160,0.267,0.254,0.248,0.143,0.086,west-northwest,5.0,No
2020/11/21,19:40,0.178,0.160,0.266,0.252,0.247,0.144,0.086,west-northwest,5.1,No
2020/11/21,19:50,0.179,0.161,0.266,0.253,0.247,0.143,0.086,west,6.1,No
2020/11/21,20:00,0.179,0.160,0.266,0.252,0.249,0.144,0.085,west-northwest,5.8,No
2020/11/21,20:10,0.179,0.160,0.264,0.253,0.247,0.143,0.086,west,5.8,No
2020/11/21,20:20,0.178,0.161,0.266,0.251,0.247,0.143,0.085,west-northwest,6.3,No
2020/11/21,20:30,0.177,0.161,0.267,0.253,0.248,0.144,0.086,west-northwest,6.6,No
2020/11/21,20:40,0.179,0.160,0.266,0.252,0.249,0.143,0.085,west-northwest,5.2,No
2020/11/21,20:50,0.178,0.160,0.266,0.251,0.247,0.144,0.085,northwest,4.3,No
2020/11/21,21:00,0.178,0.161,0.267,0.252,0.248,0.143,0.085,west-northwest,3.0,No
2020/11/21,21:10,0.177,0.160,0.267,0.252,0.246,0.144,0.086,northwest,4.2,No
2020/11/21,21:20,0.178,0.160,0.266,0.252,0.247,0.144,0.087,northwest,6.9,No
2020/11/21,21:30,0.178,0.160,0.265,0.252,0.247,0.143,0.086,northwest,6.0,No
2020/11/21,21:40,0.179,0.160,0.267,0.252,0.248,0.144,0.086,northwest,5.4,No
2020/11/21,21:50,0.178,0.161,0.267,0.252,0.248,0.144,0.087,west-northwest,5.9,No
2020/11/21,22:00,0.179,0.161,0.266,0.252,0.248,0.143,0.085,northwest,5.9,No
2020/11/21,22:10,0.178,0.161,0.266,0.252,0.247,0.144,0.086,northwest,6.2,No
2020/11/21,22:20,0.178,0.161,0.267,0.252,0.248,0.143,0.086,northwest,6.7,No
2020/11/21,22:30,0.179,0.160,0.267,0.252,0.247,0.143,0.086,northwest,5.8,No
2020/11/21,22:40,0.179,0.160,0.266,0.252,0.248,0.142,0.087,northwest,5.2,No
2020/11/21,22:50,0.178,0.160,0.266,0.252,0.247,0.143,0.086,west-northwest,5.6,No
2020/11/21,23:00,0.178,0.160,0.267,0.252,0.247,0.143,0.086,west-northwest,4.7,No
2020/11/21,23:10,0.178,0.160,0.267,0.252,0.247,0.143,0.087,west-northwest,3.9,No
2020/11/21,23:20,0.178,0.161,0.266,0.252,0.248,0.143,0.086,west-northwest,2.9,No
2020/11/21,23:30,0.179,0.160,0.266,0.253,0.247,0.143,0.086,west-northwest,2.2,No
2020/11/21,23:40,0.179,0.160,0.266,0.251,0.248,0.143,0.086,north-northwest,2.7,No
2020/11/21,23:50,0.178,0.161,0.267,0.252,0.247,0.142,0.086,northwest,1.9,No
